Poplar Bluff, MO

12:30 AM CDT on April 20, 2018 (GMT -0500)
Poplar Bluff Municipal

Weather History for KPOF - October, 2011

Change the Weather History Date:

Friday, October 7, 2011

  Actual Average Record
Temperature  
Mean Temperature 68 °F -  
Max Temperature 84 °F 73 °F 91 °F (1939)
Min Temperature 51 °F 49 °F 30 °F (1952)
Cooling Degree Days 2    
Growing Degree Days 18 (Base 50)    
Moisture  
Dew Point 53 °F    
Average Humidity 69    
Maximum Humidity 97    
Minimum Humidity 32    
Precipitation  
Precipitation 0.03 in - - ()
Sea Level Pressure  
Sea Level Pressure 30.22 in    
Wind  
Wind Speed 2 mph (SSE)    
Max Wind Speed 10 mph    
Max Gust Speed -    
Visibility 9 miles    
Events      
Averages and records for this station are not official NWS values.
T = Trace of Precipitation, MM = Missing Value Source: NWS Daily Summary

Daily Weather History Graph

Daily Weather History Graph

Search for Another Location

Airport or City:

Astronomy

Oct. 07, 2011 Rise Set
Actual Time 7:01 AM CDT 6:36 PM CDT
Civil Twilight 6:35 AM CDT 7:02 PM CDT
Nautical Twilight 6:05 AM CDT 7:32 PM CDT
Astronomical Twilight 5:35 AM CDT 8:02 PM CDT
Moon 4:14 PM CDT (10/7) 2:56 AM CDT (10/7)
Length of Visible Light 12h 26m
Length of Day
11h 34m
Waxing Gibbous, 83% of the Moon is Illuminated
Oct 7
Waxing Gibbous
Oct 11
Full
Oct 19
Last Quarter
Oct 26
New
Nov 2
First Quarter

Hourly Weather History & Observations

Time (CDT) Temp. Heat Index Dew Point Humidity Pressure Visibility Wind Dir Wind Speed Gust Speed Precip Events Conditions
12:53 AM 55.9 °F - 53.1 °F 90% 30.18 in 10.0 mi Calm Calm - N/A   Clear
1:53 AM 55.9 °F - 53.1 °F 90% 30.19 in 10.0 mi Calm Calm - N/A   Clear
2:53 AM 55.0 °F - 53.1 °F 93% 30.19 in 8.0 mi Calm Calm - N/A   Clear
3:53 AM 53.1 °F - 52.0 °F 96% 30.19 in 7.0 mi Calm Calm - N/A   Clear
4:53 AM 52.0 °F - 50.0 °F 93% 30.21 in 8.0 mi Calm Calm - N/A   Clear
5:53 AM 52.0 °F - 51.1 °F 97% 30.23 in 10.0 mi Calm Calm - 0.01 in   Clear
6:53 AM 51.1 °F - 50.0 °F 96% 30.26 in 4.0 mi Calm Calm - 0.01 in   Clear
8:53 AM 64.0 °F - 57.0 °F 78% 30.29 in 9.0 mi Calm Calm - N/A   Clear
9:53 AM 71.1 °F - 57.9 °F 63% 30.29 in 10.0 mi South 8.1 mph - N/A   Clear
10:53 AM 79.0 °F - 55.9 °F 45% 30.28 in 10.0 mi SSE 9.2 mph - N/A   Clear
12:53 PM 82.0 °F 81.4 °F 55.0 °F 39% 30.25 in 10.0 mi SSE 10.4 mph - N/A   Clear
1:53 PM 82.9 °F - 52.0 °F 34% 30.22 in 10.0 mi South 8.1 mph - N/A   Clear
2:53 PM 84.0 °F 82.5 °F 53.1 °F 34% 30.20 in 10.0 mi South 8.1 mph - N/A   Clear
4:53 PM 84.0 °F - 51.1 °F 32% 30.19 in 10.0 mi SSE 10.4 mph - N/A   Clear
5:53 PM 79.0 °F - 54.0 °F 42% 30.19 in 7.0 mi SE 5.8 mph - N/A   Clear
6:53 PM 72.0 °F - 53.1 °F 51% 30.19 in 10.0 mi ESE 3.5 mph - 0.01 in   Clear
7:53 PM 71.1 °F - 54.0 °F 55% 30.20 in 10.0 mi ESE 4.6 mph - N/A   Clear
8:53 PM 68.0 °F - 53.1 °F 59% 30.21 in 10.0 mi ESE 3.5 mph - N/A   Clear
9:53 PM 60.1 °F - 54.0 °F 80% 30.22 in 10.0 mi Calm Calm - N/A   Clear
10:53 PM 59.0 °F - 54.0 °F 83% 30.23 in 10.0 mi Calm Calm - N/A   Clear
11:53 PM 55.9 °F - 53.1 °F 90% 30.23 in 9.0 mi Calm Calm - N/A   Clear